Hourly Weather Barnislawice

Today, 6 May, Thursday

Time Temperature Precipitation Wind Pressure Humidity
00:00 +3°C° 0.1 mm 11 mps 745 mmHg 78%
01:00 +3°C° 0 mm 11 mps 746 mmHg 75%
02:00 +2°C° 0 mm 11 mps 746 mmHg 71%
03:00 +2°C° 0 mm 10 mps 746 mmHg 68%
04:00 +2°C° 0 mm 10 mps 746 mmHg 64%
05:00 +2°C° 0 mm 10 mps 747 mmHg 65%
06:00 +2°C° 0 mm 10 mps 747 mmHg 67%
07:00 +2°C° 0 mm 9 mps 747 mmHg 68%
08:00 +5°C° 0 mm 9 mps 748 mmHg 63%
09:00 +6°C° 0 mm 9 mps 748 mmHg 57%
10:00 +7°C° 0 mm 9 mps 748 mmHg 51%
11:00 +8°C° 0 mm 9 mps 748 mmHg 47%
12:00 +8°C° 0 mm 9 mps 748 mmHg 43%
13:00 +10°C° 0 mm 8 mps 748 mmHg 39%
14:00 +10°C° 0 mm 8 mps 748 mmHg 42%
15:00 +10°C° 0 mm 7 mps 748 mmHg 44%
16:00 +9°C° 0 mm 7 mps 748 mmHg 47%
17:00 +8°C° 0.1 mm 5 mps 748 mmHg 53%
18:00 +7°C° 0.1 mm 4 mps 748 mmHg 59%
19:00 +7°C° 0.1 mm 3 mps 748 mmHg 66%
20:00 +5°C° 0 mm 3 mps 748 mmHg 69%
21:00 +5°C° 0 mm 2 mps 749 mmHg 72%
22:00 +4°C° 0 mm 2 mps 749 mmHg 76%
23:00 +4°C° 0 mm 2 mps 749 mmHg 78%

Tomorrow, 7 May, Friday

Time Temperature Precipitation Wind Pressure Humidity
00:00 +4°C° 0 mm 2 mps 749 mmHg 81%
01:00 +4°C° 0 mm 1 mps 749 mmHg 83%
02:00 +4°C° 0 mm 1 mps 748 mmHg 83%
03:00 +4°C° 0 mm 1 mps 748 mmHg 84%
04:00 +4°C° 0 mm 1 mps 748 mmHg 84%
05:00 +4°C° 0 mm 2 mps 748 mmHg 80%
06:00 +5°C° 0 mm 2 mps 749 mmHg 77%
07:00 +5°C° 0 mm 3 mps 749 mmHg 73%
08:00 +7°C° 0 mm 3 mps 749 mmHg 67%
09:00 +7°C° 0 mm 4 mps 749 mmHg 61%
10:00 +8°C° 0 mm 4 mps 750 mmHg 55%
11:00 +8°C° 0.1 mm 5 mps 750 mmHg 56%
12:00 +8°C° 0.1 mm 6 mps 750 mmHg 57%
13:00 +8°C° 0.1 mm 7 mps 751 mmHg 58%
14:00 +8°C° 0.2 mm 6 mps 751 mmHg 61%
15:00 +7°C° 0.2 mm 6 mps 751 mmHg 64%
16:00 +7°C° 0.2 mm 6 mps 752 mmHg 66%
17:00 +6°C° 0.1 mm 5 mps 752 mmHg 71%
18:00 +6°C° 0.1 mm 5 mps 753 mmHg 76%
19:00 +5°C° 0.1 mm 5 mps 753 mmHg 81%
20:00 +4°C° 0 mm 4 mps 754 mmHg 85%
21:00 +3°C° 0 mm 4 mps 754 mmHg 89%
22:00 +1°C° 0 mm 4 mps 755 mmHg 92%
23:00 +1°C° 0 mm 4 mps 755 mmHg 93%

Day after tomorrow, 8 May, Saturday

Time Temperature Precipitation Wind Pressure Humidity
00:00 +1°C° 0 mm 4 mps 755 mmHg 94%
01:00 0°C° 0 mm 4 mps 756 mmHg 94%
02:00 0°C° 0 mm 4 mps 756 mmHg 95%
03:00 0°C° 0 mm 4 mps 756 mmHg 96%
04:00 0°C° 0 mm 4 mps 756 mmHg 96%
05:00 +1°C° 0 mm 5 mps 757 mmHg 93%
06:00 +2°C° 0 mm 5 mps 757 mmHg 89%
07:00 +3°C° 0 mm 6 mps 757 mmHg 85%
08:00 +4°C° 0 mm 6 mps 758 mmHg 80%
09:00 +5°C° 0 mm 6 mps 758 mmHg 75%
10:00 +7°C° 0 mm 5 mps 758 mmHg 70%
11:00 +8°C° 0.1 mm 5 mps 758 mmHg 62%
12:00 +9°C° 0.1 mm 5 mps 758 mmHg 54%
13:00 +10°C° 0.1 mm 5 mps 759 mmHg 47%
14:00 +11°C° 0 mm 4 mps 758 mmHg 46%
15:00 +12°C° 0 mm 3 mps 758 mmHg 45%
16:00 +12°C° 0 mm 3 mps 758 mmHg 45%
17:00 +10°C° 0 mm 3 mps 758 mmHg 53%
18:00 +9°C° 0 mm 2 mps 758 mmHg 60%
19:00 +8°C° 0 mm 2 mps 758 mmHg 68%
20:00 +7°C° 0 mm 2 mps 758 mmHg 69%
21:00 +5°C° 0 mm 3 mps 758 mmHg 70%
22:00 +5°C° 0 mm 3 mps 758 mmHg 71%
23:00 +5°C° 0 mm 4 mps 757 mmHg 66%

9 May, Sunday

Time Temperature Precipitation Wind Pressure Humidity
00:00 +5°C° 0 mm 4 mps 757 mmHg 62%
01:00 +6°C° 0 mm 5 mps 757 mmHg 57%
02:00 +5°C° 0 mm 6 mps 756 mmHg 58%
03:00 +5°C° 0 mm 6 mps 756 mmHg 59%
04:00 +6°C° 0 mm 7 mps 755 mmHg 60%
05:00 +7°C° 0 mm 6 mps 755 mmHg 61%
06:00 +8°C° 0 mm 6 mps 754 mmHg 61%
07:00 +9°C° 0 mm 6 mps 754 mmHg 62%
08:00 +11°C° 0 mm 7 mps 754 mmHg 60%
09:00 +14°C° 0 mm 7 mps 754 mmHg 57%
10:00 +16°C° 0 mm 7 mps 754 mmHg 55%
11:00 +18°C° 0 mm 7 mps 754 mmHg 53%
12:00 +20°C° 0 mm 7 mps 754 mmHg 51%
13:00 +21°C° 0 mm 7 mps 754 mmHg 50%
14:00 +21°C° 0 mm 6 mps 753 mmHg 52%
15:00 +21°C° 0 mm 6 mps 753 mmHg 54%
16:00 +22°C° 0 mm 6 mps 753 mmHg 55%
17:00 +20°C° 0 mm 5 mps 753 mmHg 61%
18:00 +19°C° 0 mm 5 mps 753 mmHg 67%
19:00 +18°C° 0 mm 4 mps 753 mmHg 72%
20:00 +16°C° 0 mm 5 mps 753 mmHg 75%
21:00 +15°C° 0 mm 5 mps 753 mmHg 79%
22:00 +14°C° 0 mm 5 mps 753 mmHg 82%
23:00 +13°C° 0 mm 5 mps 753 mmHg 83%

10 May, Monday

Time Temperature Precipitation Wind Pressure Humidity
00:00 +12°C° 0 mm 5 mps 753 mmHg 83%
01:00 +10°C° 0 mm 5 mps 753 mmHg 84%
02:00 +10°C° 0 mm 5 mps 753 mmHg 83%
03:00 +9°C° 0 mm 5 mps 753 mmHg 82%
04:00 +9°C° 0 mm 5 mps 753 mmHg 80%
05:00 +10°C° 0 mm 5 mps 753 mmHg 77%
06:00 +12°C° 0 mm 5 mps 753 mmHg 74%
07:00 +13°C° 0 mm 6 mps 753 mmHg 71%
08:00 +14°C° 0 mm 6 mps 753 mmHg 66%
09:00 +16°C° 0 mm 6 mps 753 mmHg 61%
10:00 +19°C° 0 mm 6 mps 753 mmHg 56%
11:00 +20°C° 0 mm 6 mps 753 mmHg 54%
12:00 +21°C° 0 mm 5 mps 753 mmHg 52%
13:00 +22°C° 0 mm 5 mps 753 mmHg 50%
14:00 +22°C° 0 mm 5 mps 753 mmHg 51%
15:00 +23°C° 0 mm 4 mps 753 mmHg 51%
16:00 +24°C° 0 mm 3 mps 753 mmHg 52%
17:00 +23°C° 0 mm 2 mps 753 mmHg 58%
18:00 +20°C° 0 mm 2 mps 753 mmHg 64%
19:00 +20°C° 0 mm 1 mps 753 mmHg 70%
20:00 +18°C° 0 mm 2 mps 753 mmHg 74%
21:00 +17°C° 0 mm 2 mps 753 mmHg 79%
22:00 +14°C° 0 mm 3 mps 753 mmHg 83%
23:00 +14°C° 0 mm 3 mps 753 mmHg 86%

11 May, Tuesday

Time Temperature Precipitation Wind Pressure Humidity
00:00 +14°C° 0 mm 3 mps 752 mmHg 90%
01:00 +13°C° 0 mm 3 mps 752 mmHg 93%
02:00 +13°C° 0 mm 3 mps 752 mmHg 93%
03:00 +13°C° 0 mm 3 mps 752 mmHg 94%
04:00 +12°C° 0 mm 3 mps 752 mmHg 94%
05:00 +14°C° 0 mm 3 mps 752 mmHg 89%
06:00 +15°C° 0 mm 4 mps 752 mmHg 83%
07:00 +17°C° 0 mm 4 mps 752 mmHg 77%
08:00 +19°C° 0 mm 4 mps 752 mmHg 73%
09:00 +20°C° 0 mm 4 mps 751 mmHg 68%
10:00 +22°C° 0 mm 4 mps 751 mmHg 63%
11:00 +22°C° 0 mm 4 mps 751 mmHg 61%
12:00 +23°C° 0 mm 4 mps 751 mmHg 59%
13:00 +25°C° 0 mm 3 mps 751 mmHg 57%
14:00 +24°C° 0 mm 3 mps 751 mmHg 62%
15:00 +22°C° 0 mm 3 mps 751 mmHg 67%
16:00 +21°C° 0 mm 3 mps 751 mmHg 72%
17:00 +19°C° 0 mm 3 mps 752 mmHg 78%
18:00 +17°C° 0 mm 3 mps 752 mmHg 83%
19:00 +14°C° 0 mm 3 mps 753 mmHg 88%
20:00 +15°C° 0 mm 2 mps 753 mmHg 89%
21:00 +14°C° 0 mm 2 mps 753 mmHg 90%
22:00 +14°C° 0 mm 2 mps 753 mmHg 91%
23:00 +13°C° 0 mm 2 mps 753 mmHg 91%
Show more